Total_Precipitation_Accumulation
1.68 2.16 2.81 3.47 4.25 5.37 6.02 6.14 5.84 5.12 4.57 4.14 3.88 3.57 3.27 2.98 2.51 2.11 1.85 1.72 1.63 1.56 1.72 1.56 1.57 1.48 1.51 1.51 1.59 1.80 1.88 1.67 1.84 2.07 1.88 1.58 1.35 1.37 1.35 1.29 1.37 1.44 1.52
1.54 2.15 2.93 3.74 4.39 4.95 5.30 5.36 4.96 4.19 3.69 3.40 3.30 3.01 2.77 2.42 2.20 1.95 1.90 1.65 1.56 1.54 1.44 1.55 1.38 1.33 1.48 1.45 1.52 1.72 1.72 1.52 1.65 1.92 1.98 1.73 1.64 1.36 0.97 1.15 1.28 1.33 1.60
1.72 2.50 3.32 4.07 4.41 4.42 4.19 3.89 3.70 3.29 3.15 3.07 2.87 2.62 2.56 2.27 2.07 1.86 1.75 1.49 1.31 1.27 1.29 1.29 1.19 1.26 1.15 1.30 1.47 1.59 1.73 1.69 1.52 1.50 1.78 1.71 1.66 1.48 1.10 0.97 1.07 1.31 1.56
1.87 2.59 3.13 3.37 3.52 3.44 3.14 2.93 2.85 2.76 2.70 2.59 2.45 2.14 2.00 1.94 1.77 1.67 1.66 1.54 1.36 1.28 1.26 1.18 1.25 1.24 1.10 1.32 1.14 1.29 1.55 1.66 1.50 1.51 1.45 1.48 1.59 1.61 1.46 1.25 1.09 1.25 1.34
1.44 1.67 1.88 2.03 2.16 2.19 2.33 2.37 2.45 2.58 2.48 2.42 2.39 2.28 2.01 1.93 1.87 1.86 1.93 1.80 1.62 1.41 1.20 1.21 1.35 1.38 1.24 1.25 1.25 1.41 1.43 1.47 1.48 1.49 1.47 1.62 1.64 1.48 1.50 1.49 1.40 1.34 1.12
0.89 1.00 1.09 1.21 1.44 1.49 1.68 1.85 1.92 2.09 2.23 2.22 2.12 2.05 1.97 1.99 1.99 1.93 1.77 1.58 1.46 1.38 1.26 1.32 1.50 1.46 1.41 1.37 1.31 1.34 1.39 1.54 1.64 1.61 1.51 1.57 1.62 1.57 1.65 1.49 1.41 1.45 1.27
0.71 0.85 0.98 1.09 1.27 1.20 1.26 1.45 1.53 1.56 1.71 1.74 1.70 1.75 1.86 1.92 1.79 1.69 1.61 1.45 1.23 1.20 1.28 1.32 1.46 1.43 1.45 1.38 1.50 1.52 1.47 1.55 1.62 1.59 1.53 1.47 1.41 1.51 1.64 1.65 1.51 1.51 1.44
0.62 0.72 0.72 0.80 0.92 0.88 0.95 1.08 1.22 1.31 1.36 1.45 1.50 1.50 1.62 1.63 1.58 1.64 1.55 1.40 1.19 1.09 1.10 1.18 1.24 1.28 1.32 1.32 1.62 1.52 1.54 1.61 1.55 1.45 1.72 1.65 1.43 1.57 1.69 1.86 2.00 1.88 1.76
0.50 0.56 0.50 0.50 0.62 0.72 0.78 0.85 1.04 1.18 1.19 1.31 1.38 1.34 1.41 1.50 1.56 1.58 1.49 1.31 1.31 1.17 1.18 1.20 1.35 1.44 1.46 1.51 1.70 1.63 1.60 1.72 1.57 1.55 1.67 1.64 1.59 1.63 1.63 1.93 2.18 2.29 2.14
0.41 0.44 0.43 0.39 0.45 0.58 0.75 0.85 0.98 1.10 1.13 1.23 1.23 1.09 1.24 1.36 1.50 1.48 1.40 1.36 1.38 1.30 1.36 1.37 1.46 1.52 1.50 1.51 1.67 1.66 1.72 1.78 1.69 1.67 1.69 1.67 1.64 1.74 1.69 1.81 2.02 2.20 2.37
0.45 0.43 0.37 0.37 0.36 0.45 0.65 0.78 0.92 1.04 1.10 1.17 1.25 1.28 1.29 1.24 1.36 1.39 1.36 1.38 1.41 1.33 1.36 1.43 1.52 1.50 1.56 1.68 1.76 1.64 1.69 1.79 1.94 1.89 1.87 1.93 2.00 1.95 1.85 1.92 1.98 2.11 2.36
0.37 0.39 0.43 0.47 0.43 0.44 0.55 0.68 0.84 0.99 1.05 1.12 1.24 1.33 1.46 1.42 1.37 1.36 1.39 1.41 1.49 1.52 1.48 1.52 1.55 1.46 1.50 1.69 1.77 1.75 1.77 1.81 1.85 2.02 2.23 2.20 2.18 2.09 1.95 2.04 1.99 2.03 2.30
0.48 0.47 0.51 0.56 0.57 0.54 0.56 0.68 0.82 0.98 1.10 1.18 1.26 1.40 1.48 1.39 1.34 1.45 1.52 1.53 1.66 1.77 1.81 1.79 1.69 1.60 1.58 1.65 1.75 1.84 1.86 1.90 1.97 2.08 2.18 2.21 2.34 2.21 2.11 2.05 2.01 2.05 2.22
0.55 0.49 0.45 0.48 0.58 0.72 0.76 0.83 1.07 1.08 1.09 1.26 1.40 1.46 1.48 1.45 1.44 1.52 1.60 1.61 1.68 1.83 1.97 1.93 1.85 1.82 1.73 1.61 1.60 1.64 1.73 1.90 2.04 2.09 2.01 2.09 2.32 2.36 2.31 2.15 2.10 2.18 2.31
0.52 0.44 0.41 0.44 0.55 0.69 0.77 0.88 0.95 1.13 1.19 1.37 1.52 1.56 1.65 1.69 1.72 1.81 1.81 1.74 1.73 1.77 1.95 2.03 2.03 1.98 1.82 1.60 1.61 1.73 1.74 1.90 1.95 1.91 1.81 1.80 2.00 2.22 2.30 2.12 2.08 2.19 2.21
0.51 0.53 0.55 0.57 0.60 0.65 0.72 0.79 0.84 1.03 1.24 1.50 1.81 1.86 1.92 1.93 1.99 2.14 2.21 2.13 2.10 2.20 2.25 2.21 2.15 2.07 1.72 1.76 1.76 1.73 1.76 1.86 1.89 1.87 1.81 1.69 1.66 1.69 1.84 1.97 2.09 2.21 2.18
0.66 0.71 0.80 0.79 0.75 0.75 0.79 0.85 0.93 1.10 1.39 1.68 1.93 2.09 2.16 2.18 2.23 2.32 2.34 2.30 2.41 2.59 2.62 2.50 2.33 2.18 2.08 1.96 1.74 1.68 1.60 1.63 1.66 1.71 1.71 1.47 1.33 1.44 1.38 1.56 1.71 1.84 1.92
0.73 0.78 0.91 0.95 0.92 0.93 1.01 1.13 1.29 1.50 1.77 1.97 2.11 2.20 2.19 2.19 2.22 2.29 2.24 2.28 2.42 2.50 2.53 2.46 2.33 2.23 2.14 2.00 1.66 1.57 1.37 1.42 1.47 1.50 1.50 1.45 1.38 1.36 1.41 1.43 1.42 1.41 1.48
0.78 0.84 0.94 1.05 1.13 1.17 1.28 1.36 1.47 1.65 1.86 1.99 2.00 1.98 2.06 2.15 2.20 2.23 2.28 2.31 2.30 2.19 2.10 2.08 2.09 2.07 2.11 2.03 1.67 1.48 1.33 1.44 1.48 1.49 1.51 1.54 1.46 1.55 1.42 1.37 1.42 1.45 1.48
0.78 0.90 0.93 1.01 1.13 1.23 1.27 1.37 1.52 1.69 1.87 1.98 1.97 1.93 2.02 2.09 2.15 2.20 2.26 2.21 2.14 2.08 2.03 1.96 1.99 1.98 1.95 1.93 1.55 1.42 1.35 1.47 1.49 1.53 1.54 1.53 1.42 1.42 1.26 1.20 1.33 1.35 1.39
0.86 0.89 0.97 1.04 1.08 1.18 1.26 1.36 1.49 1.59 1.68 1.74 1.81 1.91 2.04 2.12 2.13 2.17 2.15 2.09 2.00 2.03 2.06 2.00 1.93 1.89 1.85 1.87 1.59 1.40 1.27 1.44 1.61 1.60 1.54 1.52 1.44 1.17 1.10 1.07 1.09 1.13 1.16
0.93 0.97 1.05 1.18 1.25 1.30 1.32 1.40 1.39 1.45 1.56 1.57 1.63 1.67 1.76 1.86 1.87 1.94 1.91 1.92 1.90 1.88 1.87 1.81 1.74 1.70 1.71 1.61 1.47 1.27 1.14 1.20 1.37 1.50 1.52 1.52 1.38 1.10 0.97 0.87 0.85 0.85 0.81
1.13 1.10 1.08 1.15 1.24 1.34 1.43 1.49 1.45 1.40 1.41 1.45 1.52 1.56 1.56 1.68 1.77 1.84 1.80 1.77 1.74 1.69 1.62 1.56 1.52 1.53 1.53 1.47 1.25 1.05 0.95 0.99 1.10 1.28 1.44 1.36 1.17 0.99 0.84 0.78 0.74 0.69 0.66
0.97 1.02 1.03 1.09 1.27 1.27 1.33 1.42 1.47 1.44 1.44 1.49 1.48 1.51 1.54 1.61 1.81 1.89 1.77 1.66 1.58 1.51 1.48 1.43 1.43 1.48 1.50 1.44 1.23 1.02 0.87 0.90 0.98 1.07 1.17 1.18 1.16 1.09 1.00 0.90 0.79 0.70 0.74
0.82 0.82 0.87 0.92 1.01 1.04 1.08 1.16 1.25 1.30 1.26 1.23 1.19 1.16 1.23 1.37 1.56 1.67 1.64 1.50 1.43 1.48 1.48 1.44 1.40 1.34 1.31 1.34 1.26 1.08 1.02 1.03 1.09 1.07 1.13 1.16 1.25 1.29 1.28 1.24 1.14 1.05 1.01
0.68 0.72 0.74 0.76 0.80 0.86 0.94 1.04 1.18 1.27 1.25 1.16 1.10 1.09 1.10 1.19 1.38 1.58 1.66 1.53 1.33 1.37 1.32 1.26 1.21 1.18 1.14 1.11 1.07 1.00 0.96 1.00 1.03 0.98 1.12 1.28 1.39 1.47 1.48 1.45 1.33 1.19 1.07